Tracking 29790 objects as of 12-Oct-2024
HD Live streaming from Space Station
objects crossing your sky now

THORAD DELTA 1 DEB

Track THORAD DELTA 1 DEB now!
10-day predictions


NORAD ID: 8401
Int'l Code: 1974-089CD
Perigee: 1,349.2 km
Apogee: 1,453.2 km
Inclination: 101.5 °
Period: 113.7 minutes
Semi major axis: 7772 km
RCS: 0.0291 m2 (small)
Launch date: November 15, 1974
Source: United States (US)
Launch site: AIR FORCE WESTERN TEST RANGE (AFWTR)

Note: This is SATELLITE DEBRIS
Your satellite tracking list
Your tracking list is empty




NASA's NSSDC Master Catalog

Two Line Element Set (TLE):
1 08401U 74089CD  24284.18143116  .00000164  00000-0  10894-2 0  9991
2 08401 101.4667 356.1956 0066908 209.8067 181.8918 12.67031077307398
Source of the keplerian elements: AFSPC